Location: Pella
(41.4080°N, 92.9160°W)
Time: 21:43:05
(UTC-05:00)

ASTRO E2 - Visible Passes

Search period start: 22 May 2015 00:00
Search period end: 01 June 2015 00:00
Orbit: 524 x 531 km, 31.4° (Epoch: 22 May)

Date Brightness Start Highest point End Pass type
(mag) Time Alt. Az. Time Alt. Az. Time Alt. Az.
25 May 4.6 21:43:18 10° SSW 21:45:12 13° SSE 21:45:12 13° SSE visible
26 May 4.5 21:28:59 10° SSW 21:31:14 15° SSE 21:32:34 13° SE visible
27 May 4.5 21:14:43 10° SSW 21:17:13 16° SSE 21:19:43 10° SE visible
27 May 5.1 22:54:22 10° SW 22:54:51 12° SW 22:54:51 12° SW visible
28 May 4.7 22:40:23 10° SW 22:41:50 16° SSW 22:41:50 16° SSW visible
29 May 4.5 22:26:27 10° SW 22:28:41 18° SSW 22:28:41 18° SSW visible
30 May 4.4 22:12:32 10° SW 22:15:15 17° S 22:15:27 17° S visible
31 May 4.5 21:58:38 10° SW 22:01:13 16° S 22:02:09 15° S visible
